• In Hungary
  • List of Countries
  • For 7 days
  • Water Temperature
  • Satellite Maps
  • Weather Map
  • News
  • Weather Widgets
  • user-avatar
    Login

    Hourly Weather Roschino

    Today, 24 September, Monday

    Time Temperature Precipitation Wind Pressure Humidity
    00:00 +18°C° 0 mm 2 mps 751 mmHg 64%
    01:00 +17°C° 0 mm 2 mps 751 mmHg 64%
    02:00 +16°C° 0 mm 3 mps 751 mmHg 61%
    03:00 +16°C° 0 mm 3 mps 751 mmHg 58%
    04:00 +14°C° 0 mm 3 mps 750 mmHg 56%
    05:00 +14°C° 0 mm 3 mps 750 mmHg 55%
    06:00 +14°C° 0 mm 3 mps 750 mmHg 54%
    07:00 +13°C° 0 mm 3 mps 750 mmHg 53%
    08:00 +17°C° 0 mm 4 mps 750 mmHg 47%
    09:00 +19°C° 0 mm 5 mps 750 mmHg 41%
    10:00 +21°C° 0 mm 6 mps 750 mmHg 34%
    11:00 +22°C° 0 mm 7 mps 750 mmHg 33%
    12:00 +22°C° 0 mm 7 mps 749 mmHg 31%
    13:00 +23°C° 0 mm 7 mps 749 mmHg 30%
    14:00 +23°C° 0 mm 7 mps 749 mmHg 31%
    15:00 +23°C° 0 mm 7 mps 749 mmHg 31%
    16:00 +23°C° 0 mm 7 mps 749 mmHg 31%
    17:00 +22°C° 0 mm 5 mps 749 mmHg 36%
    18:00 +20°C° 0 mm 4 mps 749 mmHg 41%
    19:00 +18°C° 0 mm 3 mps 749 mmHg 46%
    20:00 +18°C° 0 mm 3 mps 749 mmHg 50%
    21:00 +17°C° 0 mm 2 mps 749 mmHg 53%
    22:00 +16°C° 0 mm 2 mps 749 mmHg 57%
    23:00 +16°C° 0 mm 2 mps 749 mmHg 56%

    Tomorrow, 25 September, Tuesday

    Time Temperature Precipitation Wind Pressure Humidity
    00:00 +16°C° 0 mm 2 mps 749 mmHg 55%
    01:00 +16°C° 0 mm 3 mps 749 mmHg 53%
    02:00 +14°C° 0 mm 3 mps 749 mmHg 53%
    03:00 +14°C° 0 mm 3 mps 749 mmHg 53%
    04:00 +14°C° 0 mm 3 mps 749 mmHg 53%
    05:00 +14°C° 0 mm 3 mps 749 mmHg 56%
    06:00 +13°C° 0 mm 3 mps 749 mmHg 60%
    07:00 +13°C° 0 mm 3 mps 749 mmHg 63%
    08:00 +15°C° 0 mm 4 mps 749 mmHg 61%
    09:00 +17°C° 0 mm 5 mps 749 mmHg 59%
    10:00 +19°C° 0 mm 6 mps 749 mmHg 57%
    11:00 +20°C° 0 mm 6 mps 749 mmHg 52%
    12:00 +21°C° 0 mm 6 mps 749 mmHg 48%
    13:00 +22°C° 0 mm 7 mps 749 mmHg 43%
    14:00 +22°C° 0 mm 7 mps 749 mmHg 41%
    15:00 +22°C° 0 mm 7 mps 749 mmHg 39%
    16:00 +22°C° 0 mm 6 mps 749 mmHg 37%
    17:00 +20°C° 0 mm 5 mps 749 mmHg 40%
    18:00 +18°C° 0 mm 4 mps 749 mmHg 43%
    19:00 +17°C° 0 mm 3 mps 749 mmHg 46%
    20:00 +16°C° 0 mm 3 mps 749 mmHg 48%
    21:00 +16°C° 0 mm 3 mps 749 mmHg 49%
    22:00 +14°C° 0 mm 3 mps 749 mmHg 51%
    23:00 +14°C° 0 mm 3 mps 749 mmHg 51%

    Day after tomorrow, 26 September, Wednesday

    Time Temperature Precipitation Wind Pressure Humidity
    00:00 +14°C° 0 mm 3 mps 749 mmHg 51%
    01:00 +14°C° 0 mm 4 mps 749 mmHg 51%
    02:00 +14°C° 0 mm 4 mps 749 mmHg 49%
    03:00 +14°C° 0 mm 4 mps 749 mmHg 48%
    04:00 +14°C° 0 mm 4 mps 749 mmHg 46%
    05:00 +14°C° 0 mm 4 mps 749 mmHg 46%
    06:00 +14°C° 0 mm 4 mps 750 mmHg 45%
    07:00 +14°C° 0 mm 4 mps 750 mmHg 45%
    08:00 +15°C° 0 mm 4 mps 750 mmHg 43%
    09:00 +16°C° 0 mm 5 mps 751 mmHg 41%
    10:00 +17°C° 0 mm 5 mps 751 mmHg 39%
    11:00 +19°C° 0 mm 4 mps 751 mmHg 41%
    12:00 +19°C° 0 mm 4 mps 751 mmHg 43%
    13:00 +20°C° 0 mm 4 mps 751 mmHg 44%
    14:00 +18°C° 0.2 mm 4 mps 752 mmHg 53%
    15:00 +17°C° 0.2 mm 4 mps 752 mmHg 63%
    16:00 +14°C° 0.2 mm 4 mps 752 mmHg 72%
    17:00 +13°C° 0.3 mm 4 mps 752 mmHg 76%
    18:00 +12°C° 0.3 mm 4 mps 752 mmHg 80%
    19:00 +11°C° 0.3 mm 4 mps 752 mmHg 84%
    20:00 +11°C° 0.4 mm 4 mps 753 mmHg 83%
    21:00 +10°C° 0.4 mm 4 mps 753 mmHg 83%
    22:00 +10°C° 0.4 mm 3 mps 753 mmHg 82%
    23:00 +10°C° 0.6 mm 3 mps 753 mmHg 84%

    27 September, Thursday

    Time Temperature Precipitation Wind Pressure Humidity
    00:00 +10°C° 0.6 mm 3 mps 753 mmHg 85%
    01:00 +10°C° 0.6 mm 2 mps 753 mmHg 86%
    02:00 +9°C° 0.4 mm 2 mps 754 mmHg 87%
    03:00 +9°C° 0.4 mm 2 mps 754 mmHg 88%
    04:00 +9°C° 0.4 mm 2 mps 754 mmHg 88%
    05:00 +8°C° 0 mm 2 mps 754 mmHg 89%
    06:00 +8°C° 0 mm 2 mps 754 mmHg 89%
    07:00 +7°C° 0 mm 2 mps 753 mmHg 89%
    08:00 +8°C° 0 mm 3 mps 754 mmHg 81%
    09:00 +8°C° 0 mm 4 mps 754 mmHg 72%
    10:00 +10°C° 0 mm 4 mps 754 mmHg 63%
    11:00 +10°C° 0 mm 5 mps 753 mmHg 58%
    12:00 +10°C° 0 mm 5 mps 753 mmHg 54%
    13:00 +12°C° 0 mm 5 mps 753 mmHg 49%
    14:00 +12°C° 0 mm 5 mps 752 mmHg 47%
    15:00 +13°C° 0 mm 6 mps 752 mmHg 44%
    16:00 +13°C° 0 mm 6 mps 752 mmHg 41%
    17:00 +12°C° 0 mm 5 mps 751 mmHg 45%
    18:00 +11°C° 0 mm 4 mps 751 mmHg 49%
    19:00 +10°C° 0 mm 4 mps 751 mmHg 52%
    20:00 +10°C° 0 mm 4 mps 751 mmHg 51%
    21:00 +9°C° 0 mm 5 mps 750 mmHg 50%
    22:00 +9°C° 0 mm 5 mps 750 mmHg 49%
    23:00 +9°C° 0 mm 6 mps 750 mmHg 50%

    28 September, Friday

    Time Temperature Precipitation Wind Pressure Humidity
    00:00 +9°C° 0 mm 6 mps 749 mmHg 50%
    01:00 +9°C° 0 mm 6 mps 748 mmHg 50%
    02:00 +9°C° 0 mm 7 mps 748 mmHg 50%
    03:00 +9°C° 0 mm 7 mps 748 mmHg 50%
    04:00 +9°C° 0 mm 7 mps 747 mmHg 50%
    05:00 +9°C° 0.3 mm 7 mps 747 mmHg 53%
    06:00 +8°C° 0.3 mm 7 mps 747 mmHg 57%
    07:00 +8°C° 0.3 mm 7 mps 747 mmHg 60%
    08:00 +8°C° 0.7 mm 7 mps 747 mmHg 65%
    09:00 +8°C° 0.7 mm 7 mps 747 mmHg 69%
    10:00 +6°C° 0.7 mm 7 mps 747 mmHg 74%
    11:00 +8°C° 0 mm 7 mps 747 mmHg 73%
    12:00 +9°C° 0 mm 6 mps 748 mmHg 72%
    13:00 +10°C° 0 mm 6 mps 748 mmHg 71%
    14:00 +10°C° 0 mm 6 mps 748 mmHg 70%
    15:00 +10°C° 0 mm 5 mps 748 mmHg 68%
    16:00 +12°C° 0 mm 5 mps 748 mmHg 66%
    17:00 +11°C° 0 mm 4 mps 748 mmHg 70%
    18:00 +11°C° 0 mm 4 mps 748 mmHg 74%
    19:00 +10°C° 0 mm 3 mps 748 mmHg 78%
    20:00 +10°C° 0 mm 4 mps 747 mmHg 76%
    21:00 +9°C° 0 mm 5 mps 747 mmHg 75%
    22:00 +10°C° 0 mm 6 mps 747 mmHg 74%
    23:00 +10°C° 0 mm 7 mps 746 mmHg 73%

    29 September, Saturday

    Time Temperature Precipitation Wind Pressure Humidity
    00:00 +10°C° 0 mm 7 mps 746 mmHg 72%
    01:00 +11°C° 0 mm 8 mps 745 mmHg 71%
    02:00 +11°C° 0 mm 8 mps 745 mmHg 73%
    03:00 +11°C° 0 mm 7 mps 745 mmHg 75%
    04:00 +11°C° 0 mm 7 mps 746 mmHg 76%
    05:00 +10°C° 0 mm 7 mps 746 mmHg 78%
    06:00 +10°C° 0 mm 7 mps 746 mmHg 80%
    07:00 +10°C° 0 mm 6 mps 747 mmHg 82%
    08:00 +11°C° 0 mm 6 mps 747 mmHg 80%
    09:00 +11°C° 0 mm 6 mps 748 mmHg 78%
    10:00 +13°C° 0 mm 6 mps 749 mmHg 76%
    11:00 +13°C° 0 mm 5 mps 749 mmHg 68%
    12:00 +14°C° 0 mm 4 mps 750 mmHg 60%
    13:00 +14°C° 0 mm 3 mps 750 mmHg 52%
    14:00 +16°C° 0 mm 3 mps 750 mmHg 47%
    15:00 +16°C° 0 mm 2 mps 751 mmHg 43%
    16:00 +16°C° 0 mm 2 mps 751 mmHg 39%
    17:00 +15°C° 0 mm 2 mps 751 mmHg 42%
    18:00 +14°C° 0 mm 1 mps 751 mmHg 46%
    19:00 +13°C° 0 mm 1 mps 752 mmHg 49%
    20:00 +12°C° 0 mm 1 mps 752 mmHg 51%
    21:00 +12°C° 0 mm 1 mps 752 mmHg 53%
    22:00 +12°C° 0 mm 2 mps 752 mmHg 54%
    23:00 +12°C° 0 mm 2 mps 752 mmHg 57%
    Show more